VE3KSR Weather Reports


Display with metric or nautical units.
time (UTC)temp
F
wind
direction
speed
MPH
gust
MPH
rain 1hr
in
rain 24hr
in
rain mn
in
humidity
%
barometer
mb
20170921031031 65 141 13.0 16.0 3.94 0.00 0.00 89 1016.3
20170921030532 65 152 12.0 15.0 3.94 0.00 0.00 90 1016.4
20170921030035 65 148 12.0 14.0 3.94 0.00 0.00 90 1016.4
20170921025533 65 149 11.0 12.0 3.94 0.00 0.00 90 1016.7
20170921025032 65 145 11.0 13.0 3.94 0.00 0.00 90 1016.6
20170921024536 65 155 11.0 13.0 3.94 0.00 0.00 90 1016.6
20170921024032 66 146 10.0 13.0 3.94 0.00 0.00 90 1016.6
20170921023531 66 149 11.0 12.0 3.94 0.00 0.00 89 1016.5
20170921023031 66 155 11.0 13.0 3.94 0.00 0.00 89 1016.5
20170921022533 66 156 11.0 14.0 3.94 0.00 0.00 89 1016.6
20170921022031 66 155 11.0 13.0 3.94 0.00 0.00 88 1016.4
20170921021530 66 142 11.0 13.0 3.94 0.00 0.00 88 1016.5
20170921021031 66 155 10.0 12.0 3.94 0.00 0.00 87 1016.6
20170921020531 66 148 10.0 11.0 3.94 0.00 0.00 87 1016.8
20170921020031 66 150 10.0 12.0 3.94 0.00 0.00 86 1016.6
20170921015530 66 152 9.0 11.0 3.94 0.00 0.00 86 1016.6
20170921015031 66 146 9.0 10.0 3.94 0.00 0.00 86 1016.6
20170921014535 66 155 9.0 10.0 3.94 0.00 0.00 87 1016.5
20170921014031 66 158 9.0 10.0 3.94 0.00 0.00 87 1016.5
20170921013535 66 148 9.0 10.0 3.94 0.00 0.00 87 1016.7
20170921013031 66 145 9.0 10.0 3.94 0.00 0.00 86 1016.6
20170921012535 67 156 9.0 10.0 3.94 0.00 0.00 85 1016.7
20170921012531 67 156 9.0 10.0 3.94 0.00 0.00 86 1016.7
20170921012032 67 159 9.0 10.0 3.94 0.00 0.00 86 1016.6
20170921011533 67 148 8.0 10.0 3.94 0.00 0.00 86 1016.5
20170921011032 67 153 9.0 11.0 3.94 0.00 0.00 85 1016.5
20170921010649 67 166 9.0 12.0 3.94 0.00 0.00 85 1016.5
20170921010531 67 166 9.0 12.0 3.94 0.00 0.00 85 1016.5
20170921010032 67 155 10.0 12.0 3.94 0.00 0.00 85 1016.5
20170921005531 67 143 10.0 11.0 3.94 0.00 0.00 85 1016.4
20170921005031 67 150 9.0 10.0 3.94 0.00 0.00 85 1016.2
20170921004531 68 158 9.0 11.0 3.94 0.00 0.00 85 1016.3
20170921004032 68 155 9.0 10.0 3.94 0.00 0.00 85 1016.3
20170921003531 68 188 8.0 9.0 3.94 0.00 0.00 84 1016.3
20170921003031 68 177 8.0 9.0 3.94 0.00 0.00 84 1016.3
20170921002531 68 180 7.0 8.0 3.94 0.00 0.00 83 1016.2
20170921002159 68 188 7.0 8.0 3.94 0.00 0.00 82 1016.1
20170921002031 68 188 7.0 8.0 3.94 0.00 0.00 82 1016.1
20170921001531 68 183 6.0 8.0 3.94 0.00 0.00 82 1016.0
20170921001033 68 150 7.0 9.0 3.94 0.00 0.00 82 1015.9
20170921000531 68 211 7.0 8.0 3.94 0.00 0.00 82 1015.9
20170921000031 68 198 6.0 7.0 3.94 0.00 0.00 81 1015.8
20170920235531 69 184 8.0 9.0 3.94 0.00 0.00 81 1015.8
20170920235032 69 167 10.0 13.0 3.94 0.00 0.00 81 1015.8
20170920234531 69 153 11.0 13.0 3.94 0.00 0.00 81 1015.7
20170920234032 69 145 11.0 13.0 3.94 0.00 0.00 80 1015.4
20170920233532 69 160 10.0 11.0 3.94 0.00 0.00 80 1015.6
20170920233031 70 181 7.0 10.0 3.94 0.00 0.00 78 1015.7
20170920232531 70 210 6.0 8.0 3.94 0.00 0.00 78 1015.8
20170920232032 70 165 7.0 9.0 3.94 0.00 0.00 78 1015.8
20170920231531 70 173 8.0 10.0 3.94 0.00 0.00 76 1015.7
20170920231032 70 176 8.0 10.0 3.94 0.00 0.00 75 1015.8
20170920230531 70 163 10.0 11.0 3.94 0.00 0.00 75 1015.8
20170920230031 71 177 9.0 12.0 3.94 0.00 0.00 74 1015.7
20170920225533 71 163 9.0 13.0 3.94 0.00 0.00 74 1015.7
20170920225127 71 155 10.0 13.0 3.94 0.00 0.00 74 1015.7
20170920225031 71 155 10.0 13.0 3.94 0.00 0.00 74 1015.7
20170920224531 71 156 9.0 11.0 3.94 0.00 0.00 75 1015.6
20170920224032 71 156 10.0 12.0 3.94 0.00 0.00 76 1015.6
20170920223532 71 152 10.0 13.0 3.94 0.00 0.00 75 1015.5
20170920223031 71 149 10.0 14.0 3.94 0.00 0.00 75 1015.4
20170920222532 71 153 12.0 16.0 3.94 0.00 0.00 74 1015.4
20170920222033 72 165 13.0 16.0 3.94 0.00 0.00 74 1015.4
20170920221531 72 152 12.0 15.0 3.94 0.00 0.00 74 1015.2
20170920221031 72 145 12.0 15.0 3.94 0.00 0.00 74 1015.4
20170920220531 72 149 11.0 15.0 3.94 0.00 0.00 74 1015.5
20170920220032 72 124 12.0 15.0 3.94 0.00 0.00 73 1015.4
20170920215532 72 135 11.0 14.0 3.94 0.00 0.00 75 1015.5
20170920215032 72 155 12.0 15.0 3.94 0.00 0.00 75 1015.5
20170920214816 73 158 12.0 14.0 3.94 0.00 0.00 74 1015.4
20170920214534 73 158 12.0 14.0 3.94 0.00 0.00 74 1015.4
20170920214032 73 150 9.0 13.0 3.94 0.00 0.00 74 1015.3
20170920213531 73 134 11.0 14.0 3.94 0.00 0.00 74 1015.3
20170920213033 74 152 7.0 11.0 3.94 0.00 0.00 74 1015.3
20170920212532 73 165 8.0 11.0 3.94 0.00 0.00 74 1015.2
20170920212031 74 163 8.0 11.0 3.94 0.00 0.00 73 1015.2
20170920211608 74 173 9.0 11.0 3.94 0.00 0.00 72 1015.4
20170920211531 74 173 9.0 11.0 3.94 0.00 0.00 72 1015.4
20170920211031 74 160 7.0 9.0 3.94 0.00 0.00 72 1015.4
20170920210531 74 165 8.0 10.0 3.94 0.00 0.00 73 1015.5
20170920210032 74 162 9.0 13.0 3.94 0.00 0.00 73 1015.5
20170920205531 74 159 9.0 10.0 3.94 0.00 0.00 73 1015.4
20170920205031 74 165 8.0 10.0 3.94 0.00 0.00 73 1015.6
20170920204532 74 165 9.0 10.0 3.94 0.00 0.00 73 1015.7
20170920204033 74 166 9.0 11.0 3.94 0.00 0.00 74 1015.7
20170920203533 74 156 9.0 11.0 3.94 0.00 0.00 74 1015.6
20170920203031 75 153 9.0 12.0 3.94 0.00 0.00 75 1015.6
20170920202532 75 170 9.0 12.0 3.94 0.00 0.00 73 1015.7
20170920202032 75 166 7.0 10.0 3.94 0.00 0.00 72 1015.8
20170920201531 75 162 5.0 8.0 3.94 0.00 0.00 72 1016.0
20170920201032 75 173 6.0 10.0 3.94 0.00 0.00 70 1015.9
20170920195532 75 174 7.0 10.0 3.94 0.00 0.00 71 1015.7
20170920195032 75 173 9.0 11.0 3.94 0.00 0.00 69 1015.8
20170920194531 75 169 8.0 13.0 3.94 0.00 0.00 70 1015.8
20170920194032 75 142 7.0 9.0 3.94 0.00 0.00 71 1015.9
20170920193536 75 186 5.0 8.0 3.94 0.00 0.00 71 1016.0
20170920193032 75 169 7.0 10.0 3.94 0.00 0.00 72 1016.1
20170920192532 76 166 8.0 11.0 3.94 0.00 0.00 71 1015.9
20170920192032 75 188 6.0 10.0 3.94 0.00 0.00 71 1015.9
20170920191533 76 203 7.0 9.0 3.94 0.00 0.00 70 1016.0
20170920191032 75 179 7.0 9.0 3.94 0.00 0.00 57 1015.9
20170920190532 75 159 6.0 9.0 3.94 0.00 0.00 72 1016.0
20170920190032 75 169 8.0 11.0 3.94 0.00 0.00 71 1016.0
20170920185531 75 165 10.0 12.0 3.94 0.00 0.00 70 1016.1
20170920185032 75 173 8.0 10.0 3.94 0.00 0.00 71 1016.1
20170920184533 75 163 9.0 12.0 3.94 0.00 0.00 69 1016.2
20170920184032 75 149 8.0 11.0 3.94 0.00 0.00 70 1016.1
20170920183531 75 155 11.0 13.0 3.94 0.00 0.00 70 1016.2
20170920183032 75 149 7.0 11.0 3.94 0.00 0.00 71 1016.3
20170920182532 75 159 7.0 10.0 3.94 0.00 0.00 73 1016.3
20170920182031 75 174 9.0 11.0 3.94 0.00 0.00 73 1016.4
20170920181532 75 158 10.0 12.0 3.94 0.00 0.00 73 1016.4
20170920181032 75 158 11.0 13.0 3.94 0.00 0.00 74 1016.4
20170920180532 75 158 10.0 14.0 3.94 0.00 0.00 72 1016.4
20170920180032 75 176 8.0 12.0 3.94 0.00 0.00 73 1016.7
20170920175532 75 172 7.0 10.0 3.94 0.00 0.00 74 1016.8
20170920175032 74 170 8.0 10.0 3.94 0.00 0.00 73 1016.8
20170920174533 74 138 9.0 11.0 3.94 0.00 0.00 75 1016.9
20170920174033 74 160 9.0 12.0 3.94 0.00 0.00 74 1017.1
20170920173531 74 145 9.0 10.0 3.94 0.00 0.00 73 1017.2
20170920173033 74 177 8.0 10.0 3.94 0.00 0.00 74 1017.3
20170920172531 73 165 6.0 8.0 3.94 0.00 0.00 74 1017.4
20170920172034 73 172 7.0 9.0 3.94 0.00 0.00 73 1017.5
20170920171533 73 132 7.0 9.0 3.94 0.00 0.00 76 1017.5
20170920171032 73 138 6.0 9.0 3.94 0.00 0.00 75 1017.5
20170920170534 72 155 8.0 10.0 3.94 0.00 0.00 75 1017.8
20170920170032 73 132 7.0 8.0 3.94 0.00 0.00 79 1017.8
20170920165531 73 103 6.0 9.0 3.94 0.00 0.00 80 1017.8
20170920165040 72 167 7.0 10.0 3.94 0.00 0.00 80 1017.9
20170920164533 72 169 8.0 10.0 3.94 0.00 0.00 80 1017.9
20170920164032 72 170 7.0 10.0 3.94 0.00 0.00 80 1017.9
20170920163532 72 167 9.0 10.0 3.94 0.00 0.00 82 1017.9
20170920163034 71 180 8.0 10.0 3.94 0.00 0.00 77 1017.9
20170920162532 71 169 8.0 11.0 3.94 0.00 0.00 83 1018.0
20170920162032 71 173 8.0 9.0 3.94 0.00 0.00 82 1018.0
20170920161533 71 139 8.0 10.0 3.94 0.00 0.00 86 1018.1
20170920161034 70 153 9.0 12.0 3.94 0.00 0.00 84 1018.2
20170920160533 70 153 9.0 11.0 3.94 0.00 0.00 84 1018.3
20170920160033 70 159 9.0 12.0 3.94 0.00 0.00 85 1018.6
20170920155532 70 134 9.0 12.0 3.94 0.00 0.00 88 1018.6
20170920155033 70 118 8.0 10.0 3.94 0.00 0.00 84 1018.4
20170920154534 70 179 8.0 9.0 3.94 0.00 0.00 86 1018.7
20170920154112 70 174 9.0 10.0 3.94 0.00 0.00 87 1018.7
20170920154035 70 174 9.0 10.0 3.94 0.00 0.00 87 1018.7
20170920153532 69 172 8.0 10.0 3.94 0.00 0.00 87 1018.8
20170920153038 69 165 9.0 11.0 3.94 0.00 0.00 86 1018.8
20170920152532 69 176 7.0 9.0 3.94 0.00 0.00 87 1019.0
20170920152032 68 149 9.0 10.0 3.94 0.00 0.00 88 1018.9
20170920151536 68 152 9.0 11.0 3.94 0.00 0.00 89 1019.0
20170920151034 68 162 9.0 10.0 3.94 0.00 0.00 90 1019.0
20170920150532 67 117 6.0 8.0 3.94 0.00 0.00 91 1019.1
20170920150035 67 174 8.0 10.0 3.94 0.00 0.00 92 1019.0
20170920145535 66 138 9.0 10.0 3.94 0.00 0.00 92 1019.1
20170920145032 65 111 9.0 10.0 3.94 0.00 0.00 93 1019.1
20170920144535 65 131 9.0 11.0 3.94 0.00 0.00 94 1019.0
20170920144033 64 127 9.0 11.0 3.94 0.00 0.00 94 1019.2
20170920143533 64 131 10.0 11.0 3.94 0.00 0.00 95 1019.3
20170920143034 64 113 9.0 10.0 3.94 0.00 0.00 95 1019.3
20170920142533 64 127 9.0 11.0 3.94 0.00 0.00 95 1019.3
20170920142032 64 134 10.0 12.0 3.94 0.00 0.00 95 1019.2
20170920141534 64 134 10.0 12.0 3.94 0.00 0.00 94 1019.2
20170920141035 64 145 10.0 11.0 3.94 0.00 0.00 97 1019.3
20170920140533 64 150 9.0 11.0 3.94 0.00 0.00 98 1019.5
20170920140032 64 129 9.0 11.0 3.94 0.00 0.00 98 1019.4
20170920135533 64 134 8.0 10.0 3.94 0.00 0.00 98 1019.4
20170920135034 63 128 8.0 10.0 3.94 0.00 0.00 98 1019.6
20170920134535 63 128 9.0 11.0 3.94 0.00 0.00 98 1019.4
20170920134033 62 129 10.0 11.0 3.94 0.00 0.00 98 1019.5
20170920133533 62 129 10.0 11.0 3.94 0.00 0.00 98 1019.8
20170920133038 63 124 9.0 10.0 3.94 0.00 0.00 98 1019.6
20170920132605 62 134 9.0 10.0 3.94 0.00 0.00 98 1019.5
20170920132533 62 134 9.0 10.0 3.94 0.00 0.00 98 1019.5
20170920132035 62 142 9.0 12.0 3.94 0.00 0.00 98 1019.4
20170920131537 62 134 10.0 12.0 3.94 0.00 0.00 98 1019.4
20170920131033 62 141 11.0 12.0 3.94 0.00 0.00 98 1019.4
20170920130532 62 132 10.0 11.0 3.94 0.00 0.00 98 1019.4
20170920130035 62 136 9.0 11.0 3.94 0.00 0.00 98 1019.4
20170920125533 62 142 10.0 12.0 3.94 0.00 0.00 98 1019.3
20170920125035 62 132 10.0 11.0 3.94 0.00 0.00 98 1019.2
20170920124534 61 134 9.0 11.0 3.94 0.00 0.00 98 1019.1
20170920124032 61 129 9.0 12.0 3.94 0.00 0.00 98 1019.2
20170920123536 61 131 9.0 11.0 3.94 0.00 0.00 98 1019.1
20170920123032 61 146 9.0 11.0 3.94 0.00 0.00 98 1019.0
20170920122534 61 148 9.0 11.0 3.94 0.00 0.00 97 1018.9
20170920122032 61 135 8.0 12.0 3.94 0.00 0.00 97 1019.0
20170920121607 61 142 9.0 10.0 3.94 0.00 0.00 97 1018.9
20170920121535 61 142 9.0 10.0 3.94 0.00 0.00 97 1018.9
20170920121113 61 141 9.0 11.0 3.94 0.00 0.00 97 1018.9
20170920121032 61 141 9.0 11.0 3.94 0.00 0.00 97 1018.9
20170920120532 61 134 9.0 11.0 3.94 0.00 0.00 97 1018.8
20170920120035 60 146 10.0 12.0 3.94 0.00 0.00 98 1018.9
20170920115625 60 136 9.0 10.0 3.94 0.00 0.00 98 1018.6
20170920115533 60 136 9.0 10.0 3.94 0.00 0.00 98 1018.6
20170920115032 60 142 10.0 12.0 3.94 0.00 0.00 98 1018.8
20170920114532 60 139 10.0 11.0 3.94 0.00 0.00 98 1018.7
20170920114033 60 145 10.0 11.0 3.94 0.00 0.00 98 1018.7
20170920113533 60 142 10.0 12.0 3.94 0.00 0.00 98 1018.7
20170920113032 60 135 10.0 12.0 3.94 0.00 0.00 98 1018.6
20170920112533 60 135 9.0 11.0 3.94 0.00 0.00 99 1018.5
20170920112033 60 132 9.0 10.0 3.94 0.00 0.00 98 1018.5
20170920111534 60 131 8.0 10.0 3.94 0.00 0.00 98 1018.4
20170920111033 60 125 8.0 10.0 3.94 0.00 0.00 98 1018.2
20170920110532 60 132 9.0 10.0 3.94 0.00 0.00 98 1018.3
20170920110033 60 135 9.0 10.0 3.94 0.00 0.00 98 1018.2
20170920105532 60 136 10.0 12.0 3.94 0.00 0.00 98 1018.0
20170920105032 60 136 10.0 11.0 3.94 0.00 0.00 98 1018.1
20170920104533 60 134 10.0 12.0 3.94 0.00 0.00 98 1018.0
20170920104034 60 139 10.0 12.0 3.94 0.00 0.00 98 1017.8
20170920103533 60 129 10.0 11.0 3.94 0.00 0.00 98 1018.0
20170920103035 60 131 10.0 12.0 3.94 0.00 0.00 98 1017.7
20170920102608 60 124 11.0 13.0 3.94 0.00 0.00 98 1017.8
20170920102532 60 124 11.0 13.0 3.94 0.00 0.00 98 1017.8
20170920102032 60 135 10.0 13.0 3.94 0.00 0.00 98 1017.7
20170920101532 60 134 12.0 14.0 3.94 0.00 0.00 97 1017.6
20170920101033 61 129 12.0 16.0 3.94 0.00 0.00 97 1017.5
20170920100533 61 124 12.0 15.0 3.94 0.00 0.00 97 1017.7
20170920100036 61 149 12.0 14.0 3.94 0.00 0.00 97 1017.6
20170920095533 61 125 10.0 13.0 3.94 0.00 0.00 97 1017.6
20170920095036 61 128 11.0 12.0 3.94 0.00 0.00 96 1017.5
20170920094733 61 128 11.0 13.0 3.94 0.00 0.00 96 1017.4
20170920094535 87 128 10.0 13.0 3.94 0.00 0.00 96 1017.4
20170920094035 61 122 11.0 13.0 3.94 0.00 0.00 96 1017.3
20170920093532 61 111 12.0 15.0 3.94 0.00 0.00 96 1017.4
20170920093034 61 128 11.0 13.0 3.94 0.00 0.00 96 1017.2
20170920092533 61 129 12.0 14.0 3.94 0.00 0.00 96 1017.3
20170920092033 61 121 12.0 14.0 3.94 0.00 0.00 95 1017.3
20170920091533 61 125 11.0 13.0 3.94 0.00 0.00 95 1017.2
20170920091033 61 120 12.0 14.0 3.94 0.00 0.00 95 1017.2
20170920090533 61 104 12.0 14.0 3.94 0.00 0.00 95 1017.1
20170920090033 61 121 12.0 14.0 3.94 0.00 0.00 95 1017.1
20170920085616 61 121 12.0 14.0 3.94 0.00 0.00 95 1016.9
20170920085532 61 121 12.0 14.0 3.94 0.00 0.00 95 1016.9
20170920085032 61 132 11.0 13.0 3.94 0.00 0.00 94 1016.8
20170920084610 62 129 11.0 13.0 3.94 0.00 0.00 94 1016.9
20170920084535 62 129 11.0 13.0 3.94 0.00 0.00 94 1016.9
20170920084032 62 127 11.0 12.0 3.94 0.00 0.00 94 1017.1
20170920083532 62 121 10.0 12.0 3.94 0.00 0.00 94 1016.9
20170920083033 62 131 10.0 12.0 3.94 0.00 0.00 93 1017.1
20170920082535 62 125 10.0 12.0 3.94 0.00 0.00 94 1016.9
20170920082033 62 128 10.0 11.0 3.94 0.00 0.00 94 1016.9
20170920081533 62 124 9.0 11.0 3.94 0.00 0.00 94 1016.9
20170920081034 62 124 10.0 12.0 3.94 0.00 0.00 94 1016.9
20170920080536 62 134 10.0 12.0 3.94 0.00 0.00 94 1016.9
20170920080033 62 129 10.0 12.0 3.94 0.00 0.00 94 1016.9
20170920075533 62 122 9.0 11.0 3.94 0.00 0.00 94 1016.9
20170920075229 62 124 10.0 12.0 3.94 0.00 0.00 94 1016.9
20170920075040 62 124 10.0 12.0 3.94 0.00 0.00 94 1016.9
20170920074534 62 129 10.0 12.0 3.94 0.00 0.00 94 1016.7
20170920074033 62 110 9.0 11.0 3.94 0.00 0.00 94 1016.8
20170920073533 62 120 9.0 10.0 3.94 0.00 0.00 94 1016.9
20170920073035 62 104 9.0 11.0 3.94 0.00 0.00 94 1016.8
20170920072533 62 118 9.0 10.0 3.94 0.00 0.00 94 1016.8
20170920072218 62 129 9.0 10.0 3.94 0.00 0.00 94 1016.7
20170920072033 62 129 9.0 10.0 3.94 0.00 0.00 94 1016.7
20170920071539 62 129 10.0 10.0 3.94 0.00 0.00 95 1016.7
20170920071033 62 128 10.0 11.0 3.94 0.00 0.00 95 1016.7
20170920070536 62 129 10.0 11.0 3.94 0.00 0.00 95 1016.6
20170920070034 62 131 10.0 12.0 3.94 0.00 0.00 95 1016.6
20170920065536 62 127 11.0 12.0 3.94 0.00 0.00 95 1016.7
20170920065035 62 132 10.0 12.0 3.94 0.00 0.00 95 1016.8
20170920064704 62 132 10.0 12.0 3.94 0.00 0.00 96 1016.7
20170920064533 62 132 10.0 12.0 3.94 0.00 0.00 96 1016.7
20170920064033 62 134 12.0 14.0 3.94 0.00 0.00 96 1016.6
20170920063534 62 122 11.0 13.0 3.94 0.00 0.00 96 1016.6
20170920063035 62 129 11.0 13.0 3.94 0.00 0.00 96 1016.6
20170920062534 62 129 11.0 13.0 3.94 0.00 0.00 96 1016.6
20170920062035 62 135 11.0 14.0 3.94 0.00 0.00 96 1016.8
20170920061534 62 117 12.0 14.0 3.94 0.00 0.00 96 1016.7
20170920061110 62 127 12.0 14.0 3.94 0.00 0.00 96 1016.7
20170920061036 62 127 12.0 14.0 3.94 0.00 0.00 96 1016.7
20170920060533 62 120 12.0 14.0 3.94 0.00 0.00 96 1016.7
20170920060033 62 127 12.0 13.0 3.94 0.00 0.00 96 1016.6
20170920055537 62 134 11.0 13.0 3.94 0.00 0.00 96 1016.7
20170920055033 62 127 11.0 13.0 3.94 0.00 0.00 96 1016.7
20170920054536 63 132 11.0 14.0 3.94 0.00 0.00 96 1016.7
20170920054034 63 121 13.0 14.0 3.94 0.00 0.00 97 1016.8
20170920053536 63 128 12.0 14.0 3.94 0.00 0.00 97 1016.7
20170920053034 63 122 13.0 15.0 3.94 0.00 0.00 97 1016.7
20170920052534 63 117 11.0 14.0 3.94 0.00 0.00 97 1016.8
20170920052035 63 118 12.0 15.0 3.94 0.00 0.00 97 1016.8
20170920051533 63 128 11.0 13.0 3.94 0.00 0.00 97 1016.7
20170920051033 63 122 10.0 12.0 3.94 0.00 0.00 97 1016.7
20170920050533 63 120 11.0 13.0 3.94 0.00 0.00 97 1016.7
20170920050033 63 117 12.0 14.0 3.94 0.00 0.00 97 1016.9
20170920045533 63 124 11.0 13.0 3.94 0.00 0.00 97 1016.7
20170920045034 63 125 11.0 13.0 3.94 0.00 0.00 97 1016.7
20170920044535 63 128 11.0 13.0 3.94 0.00 0.00 96 1016.8
20170920044035 63 128 12.0 14.0 3.94 0.00 0.00 96 1016.8
20170920043534 63 121 12.0 15.0 3.94 0.00 0.00 96 1016.7
20170920043035 64 124 11.0 13.0 3.94 0.00 0.00 96 1016.6
20170920042535 64 129 11.0 13.0 3.94 0.00 0.00 96 1016.6
20170920042033 64 132 10.0 12.0 3.94 0.00 0.00 96 1016.5
20170920041534 64 127 11.0 13.0 3.94 0.00 0.00 96 1016.6
20170920041034 64 124 11.0 12.0 3.94 0.00 0.00 96 1016.4
20170920040536 64 134 11.0 12.0 3.94 0.00 0.00 96 1016.5
20170920040033 64 128 11.0 13.0 3.94 0.00 0.00 96 1016.4
20170920035535 64 127 11.0 12.0 3.94 0.00 0.00 96 1016.4
20170920035033 64 118 11.0 12.0 3.94 0.00 0.00 96 1016.5
20170920034535 64 125 10.0 12.0 3.94 0.00 0.00 96 1016.5
20170920034033 64 125 11.0 12.0 3.94 0.00 0.00 96 1016.5
20170920033535 64 121 10.0 12.0 3.94 0.00 0.00 96 1016.6
20170920033034 64 127 11.0 12.0 3.94 0.00 0.00 96 1016.5
20170920032533 64 131 11.0 12.0 3.94 0.00 0.00 96 1016.4
20170920032034 64 128 11.0 12.0 3.94 0.00 0.00 95 1016.5
20170920031536 64 124 11.0 13.0 3.94 0.00 0.00 95 1016.5